Flag for France Weather past 2 weeks in Aix-en-Provence, France

Now
81 °F

Passing clouds.


Feels Like: 81 °F
Forecast: 63 / 80 °F
Wind: 17 mph from Northwest

Location: Marseille / Marignane

Current Time: Aug 31, 2014 at 1:12:00 PM

Latest Report: Aug 31, 2014 at 12:30 PM


Visibility: N/A

Pressure: 29.95 "Hg

Humidity: 48%

Dew point: 59 °F

Location of Aix-en-ProvenceLocation

Historic Weather in Aix-en-Provence — Graph

°F

Aix-en-Provence temperature yesterday

Maximum temperature yesterday: 82 °F (at 2:00 PM)
Minimum temperature yesterday: 64 °F (at 4:30 AM)
Average temperature yesterday: 74 °F

Past Weeks' High & Low Weather Summary

 TemperatureHumidityPressure
High88 °F (Aug 28, 4:00 PM)94% (Aug 19, 2:00 AM)30.07 "Hg (Aug 19, 2:00 AM)
Low55 °F (Aug 17, 7:00 AM)30% (Aug 21, 3:30 PM)29.83 "Hg (Aug 19, 5:00 AM)
Average72 °F61%29.97 "Hg
* Reported Aug 16 12:00 Noon — Aug 31 12:00 Noon, Aix-en-Provence, Weather by CustomWeather, © 2014

Note: Actual official high and low records may vary slightly from our data, if they occured in-between our weather recording intervals... More about our weather records

Advertising

Aix-en-Provence weather history for previous 24 hours

 ConditionsComfort  
Time TempWeatherWind HumidityBarometerVisibility
12:00 PM
Aug 31
79 °FSunny.15 mph51%29.98 "Hg10 mi
11:30 AM77 °FSunny.15 mph51%29.98 "Hg10 mi
11:00 AM75 °FSunny.12 mph54%29.98 "Hg10 mi
10:30 AM75 °FSunny.10 mph54%29.98 "Hg10 mi
10:00 AM73 °FSunny.12 mph57%29.98 "Hg10 mi
9:30 AM72 °FSunny.2 mph61%29.98 "Hg10 mi
9:00 AM70 °FPassing clouds.6 mph64%29.98 "HgN/A
8:30 AM68 °FSunny.6 mph69%29.98 "Hg10 mi
8:00 AM66 °FClear.5 mph78%29.98 "Hg10 mi
7:30 AM61 °FPassing clouds.7 mph83%29.95 "HgN/A
7:00 AM63 °FClear.5 mph77%29.95 "Hg10 mi
6:30 AM61 °FClear.2 mph83%29.95 "Hg10 mi
6:00 AM63 °FPassing clouds.5 mph77%29.95 "HgN/A
5:30 AM63 °FClear.8 mph77%29.95 "Hg10 mi
5:00 AM68 °FClear.9 mph64%29.95 "Hg10 mi
4:30 AM70 °FClear.10 mph64%29.95 "HgN/A
4:00 AM70 °FClear.13 mph64%29.95 "HgN/A
3:30 AM70 °FClear.12 mph64%29.95 "HgN/A
3:00 AM72 °FClear.9 mph57%29.95 "HgN/A
2:30 AM72 °FClear.8 mph57%29.95 "HgN/A
2:00 AM70 °FClear.8 mph60%29.95 "HgN/A
1:30 AM72 °FClear.9 mph61%29.95 "HgN/A
1:00 AM72 °FClear.9 mph61%29.95 "Hg10 mi
12:30 AM72 °FClear.12 mph61%29.95 "Hg10 mi
12:00 AM73 °FClear.8 mph57%29.95 "Hg10 mi
11:30 PM
Aug 30
73 °FClear.8 mph61%29.98 "Hg10 mi
10:30 PM75 °FClear.7 mph61%29.98 "Hg10 mi
10:00 PM75 °FPassing clouds.8 mph61%29.98 "HgN/A
9:30 PM77 °FClear.10 mph61%29.98 "Hg10 mi
9:00 PM75 °FSunny.12 mph65%29.98 "Hg10 mi
8:40 PM75 °FSunny.12 mph65%29.98 "Hg10 mi
8:00 PM81 °FPartly sunny.8 mph51%29.95 "HgN/A
7:30 PM79 °FPartly sunny.8 mph61%29.95 "HgN/A
7:00 PM82 °FPartly sunny.9 mph48%29.95 "HgN/A
6:30 PM81 °FPartly sunny.8 mph58%29.95 "HgN/A
6:00 PM81 °FPartly sunny.9 mph54%29.95 "HgN/A
5:30 PM82 °FPartly sunny.10 mph48%29.95 "HgN/A
5:00 PM82 °FPartly sunny.13 mph48%29.95 "HgN/A
4:30 PM82 °FPartly sunny.13 mph51%29.95 "HgN/A
4:00 PM82 °FPartly sunny.13 mph55%29.95 "HgN/A
3:30 PM82 °FPartly sunny.14 mph51%29.98 "HgN/A
3:00 PM81 °FPartly sunny.14 mph54%29.98 "HgN/A
2:30 PM82 °FScattered clouds.12 mph55%29.98 "HgN/A
2:00 PM82 °FScattered clouds.14 mph51%29.98 "HgN/A
1:30 PM81 °FScattered clouds.8 mph54%30.01 "HgN/A
1:00 PM79 °FScattered clouds.9 mph54%30.01 "HgN/A
Weather by CustomWeather, © 2014

See weather overviewHow to use our weather pages